Salem, Oregon, United States (97301)
Lat: 44.94N, Lon: 123.03W
Wx Zone: ORZ007
Local Info
Past Weather Observations for Friday, October 17, 2014

NOTE: This archive is for the closest National Weather Service station to Salem. Information may differ from the station used for current weather conditions.

Click here for Long-term Archive

Time Weather Temperature Dewpoint Humidity Pressure Winds Precip Visibility
23:56
Overcast
Light Rain
61°F / 16°C 55°F / 13°C 83% 29.92 in
(1013 mb)
SSE 10.4 mph
(SSE 17 kph)
0.04 in
(1.02 mm)
10SM
22:56
Mostly Cloudy
Light Rain
59°F / 15°C 57°F / 14°C 94% 29.92 in
(1013 mb)
SSE 9.2 mph
(SSE 15 kph)
0.08 in
(2.03 mm)
3SM
21:56
Overcast
Rain
61°F / 16°C 57°F / 14°C 88% 29.89 in
(1012 mb)
S 5.8 mph
(S 9 kph)
0.07 in
(1.78 mm)
3SM
20:56
Overcast
Light Rain
59°F / 15°C 57°F / 14°C 94% 29.89 in
(1012 mb)
Calm 0.05 in
(1.27 mm)
4SM
19:56
Overcast
Light Rain
61°F / 16°C 57°F / 14°C 88% 29.86 in
(1011 mb)
W 5.8 mph
(W 9 kph)
0.02 in
(0.51 mm)
7SM
18:56
Overcast
Light Rain
61°F / 16°C 57°F / 14°C 88% 29.83 in
(1010 mb)
Calm 0.01 in
(0.25 mm)
8SM
17:56
Overcast
Light Rain
61°F / 16°C 57°F / 14°C 88% 29.83 in
(1010 mb)
Calm 0.04 in
(1.02 mm)
10SM
16:56
Overcast
Light Rain
61°F / 16°C 57°F / 14°C 88% 29.8 in
(1009 mb)
SSW 3.5 mph
(SSW 6 kph)
0.01 in
(0.25 mm)
10SM
15:56
Overcast
Light Rain
61°F / 16°C 57°F / 14°C 88% 29.8 in
(1009 mb)
S 3.5 mph
(S 6 kph)
0.00 in
(0.00 mm)
10SM
14:56
Overcast
61°F / 16°C 57°F / 14°C 88% 29.8 in
(1009 mb)
SE 4.6 mph
(SE 7 kph)
0.01 in
(0.25 mm)
10SM
13:56
Overcast
Light Rain
61°F / 16°C 55°F / 13°C 83% 29.77 in
(1008 mb)
SSE 4.6 mph
(SSE 7 kph)
0.02 in
(0.51 mm)
10SM
12:56
Overcast
Light Rain
59°F / 15°C 54°F / 12°C 82% 29.77 in
(1008 mb)
S 4.6 mph
(S 7 kph)
0.00 in
(0.00 mm)
10SM
11:56
Overcast
Light Rain
59°F / 15°C 54°F / 12°C 82% 29.77 in
(1008 mb)
S 3.5 mph
(S 6 kph)
0.00 in
(0.00 mm)
7SM
10:56
Overcast
57°F / 14°C 54°F / 12°C 88% 29.77 in
(1008 mb)
S 3.5 mph
(S 6 kph)
- 10SM
09:56
Mostly Cloudy
57°F / 14°C 52°F / 11°C 82% 29.77 in
(1008 mb)
Calm - 10SM
09:07
Mostly Cloudy
55°F / 13°C 54°F / 12°C 94% 29.74 in
(1007 mb)
Calm - 10SM
08:56
Mostly Cloudy
55°F / 13°C 52°F / 11°C 88% 29.74 in
(1007 mb)
NNW 3.5 mph
(NNW 6 kph)
0.00 in
(0.00 mm)
10SM
07:56
Overcast
55°F / 13°C 54°F / 12°C 94% 29.77 in
(1008 mb)
Calm - 10SM
06:56
Mostly Cloudy
54°F / 12°C 54°F / 12°C 100% 29.74 in
(1007 mb)
Calm 0.00 in
(0.00 mm)
9SM
06:37
Overcast
54°F / 12°C 54°F / 12°C 100% 29.77 in
(1008 mb)
Calm 0.00 in
(0.00 mm)
10SM
05:56
Mostly Cloudy
Light Rain
54°F / 12°C 52°F / 11°C 94% 29.77 in
(1008 mb)
NNW 4.6 mph
(NNW 7 kph)
0.02 in
(0.51 mm)
10SM
04:56
Overcast
Light Rain
54°F / 12°C 54°F / 12°C 100% 29.77 in
(1008 mb)
Calm 0.04 in
(1.02 mm)
7SM
03:56
Overcast
Light Rain
54°F / 12°C 52°F / 11°C 94% 29.77 in
(1008 mb)
E 4.6 mph
(E 7 kph)
0.02 in
(0.51 mm)
10SM
02:56
Overcast
Light Rain
55°F / 13°C 52°F / 11°C 88% 29.8 in
(1009 mb)
Calm 0.02 in
(0.51 mm)
10SM
01:56
Overcast
Light Rain
55°F / 13°C 52°F / 11°C 88% 29.8 in
(1009 mb)
Calm 0.00 in
(0.00 mm)
10SM
00:56
Overcast
Light Rain
55°F / 13°C 52°F / 11°C 88% 29.77 in
(1008 mb)
ENE 4.6 mph
(ENE 7 kph)
0.03 in
(0.76 mm)
10SM
Time Weather Temperature Dewpoint Humidity Pressure Winds Precip Visibility


Weather for websites

WeatherForYou.com, LLC is not responsible for any damages or problems caused by this service. Current weather conditions are obtained from the closest station including government and personal stations which may have varying degrees of accuracy. Weather forecasts are derived from the NOAA NDFD. Like all things, this site belongs to Jesus Christ... He just trusts me to maintain it. If you have any questions or comments email webmaster@weatherforyou.com

Copyright © 2014, WeatherForYou.com LLC. All rights reserved.